Location: Limerick
(52.6650°N, 8.6230°W)
Time: 22:41:03
(UTC+01:00)

ISS - Visible Passes

Search period start: 23 September 2017 00:00
Search period end: 03 October 2017 00:00
Orbit: 401 x 407 km, 51.6° (Epoch: 24 September)

Date Brightness Start Highest point End Pass type
(mag) Time Alt. Az. Time Alt. Az. Time Alt. Az.
26 Sep -1.8 21:01:18 10° SSW 21:02:33 16° S 21:02:33 16° S visible
27 Sep -1.7 20:10:09 10° SSE 20:11:36 12° SE 20:12:44 11° ESE visible
27 Sep -1.6 21:44:19 10° SW 21:45:25 19° SW 21:45:25 19° SW visible
28 Sep -2.9 20:52:17 10° SW 20:55:12 30° SSE 20:55:24 30° SE visible
29 Sep -2.3 20:00:27 10° SSW 20:03:00 21° SSE 20:05:17 12° E visible
29 Sep -2.5 21:35:51 10° WSW 21:37:56 35° SW 21:37:56 35° SW visible
30 Sep -3.4 20:43:36 10° SW 20:46:46 46° SSE 20:47:42 35° ESE visible
30 Sep -0.8 22:19:49 10° W 22:20:21 14° W 22:20:21 14° W visible
01 Oct -2.9 19:51:28 10° SW 19:54:29 34° SSE 19:57:23 11° E visible
01 Oct -3.2 21:27:27 10° W 21:30:02 50° WSW 21:30:02 50° WSW visible
02 Oct -3.8 20:35:06 10° WSW 20:38:20 64° SSE 20:39:39 32° E visible
02 Oct -1.0 22:11:28 10° W 22:12:17 17° W 22:12:17 17° W visible
